User: anonymous   Login
Location: Unspecified
(33.8820°S, 0.0000°E)
Time: 13:40:14
(UTC+00:00)
Language:

JUGNU - Orbit

View from above orbital plane
View from above orbital plane
View from above satellite
View from above satellite

Ground track
Ground track

The orbit is defined by the following mean orbital elements,

1 37839U          26088.11942576 +.00000000 +00000-0 +10918-3 0 00004
2 37839  19.9611  74.8547 0018340 272.1328 159.2115 14.13748926    04
Epoch (UTC): 29 March 2026 02:51:58
Eccentricity: 0.0018340
inclination: 19.9611°
perigee height: 833 km
apogee height: 860 km
right ascension of ascending node: 74.8547°
argument of perigee: 272.1328°
revolutions per day: 14.13748926
mean anomaly at epoch: 159.2115°

The dashed part of the orbit path shows where the satellite is in the earth's shadow,  

DLR